This is the latest recevied weather packets stored in our database for station/object K4KMJ. If no packets are shown the sender has not sent any weather packets the latest 10 day(s).
| Time | Temp. | Humidity | Pressure | Rain* | Wind** | Luminosity | Snow |
|---|---|---|---|---|---|---|---|
| 1777842459 | 23.89° C | 72% | 1018.3 hPa | 0 mm | - | 252 W/m² | - |
| 1777842157 | 23.33° C | 72% | 1018.2 hPa | 0 mm | - | 290 W/m² | - |
| 1777841852 | 22.78° C | 72% | 1018 hPa | 0 mm | - | 168 W/m² | - |
| 1777841549 | 23.33° C | 72% | 1018.3 hPa | 0 mm | - | 194 W/m² | - |
| 1777841245 | 23.33° C | 71% | 1018.3 hPa | 0 mm | - | 222 W/m² | - |
| 1777840943 | 23.89° C | 72% | 1018.1 hPa | 0 mm | - | 238 W/m² | - |
| 1777840640 | 23.33° C | 72% | 1018.2 hPa | 0 mm | - | 276 W/m² | - |
| 1777840337 | 23.33° C | 71% | 1018.3 hPa | 0 mm | - | 226 W/m² | - |
| 1777840034 | 23.33° C | 71% | 1018.1 hPa | 0 mm | - | 279 W/m² | - |
| 1777839732 | 24.44° C | 72% | 1018.4 hPa | 0 mm | - | 434 W/m² | - |
| 1777839430 | 23.33° C | 72% | 1018.2 hPa | 0 mm | - | 700 W/m² | - |
| 1777839127 | 23.33° C | 72% | 1018.1 hPa | 0 mm | - | 338 W/m² | - |
| 1777838823 | 23.89° C | 72% | 1018.3 hPa | 0 mm | - | 374 W/m² | - |
| 1777838520 | 23.33° C | 72% | 1018.5 hPa | 0 mm | - | 401 W/m² | - |
| 1777838217 | 23.89° C | 72% | 1018.4 hPa | 0 mm | - | 450 W/m² | - |
| 1777837914 | 23.89° C | 72% | 1018.3 hPa | 0 mm | - | 370 W/m² | - |
| 1777837610 | 23.89° C | 73% | 1018.5 hPa | 0 mm | - | 322 W/m² | - |
| 1777837306 | 23.33° C | 73% | 1018.6 hPa | 0 mm | - | 329 W/m² | - |
| 1777837003 | 23.33° C | 73% | 1018.7 hPa | 0 mm | - | 394 W/m² | - |
| 1777836698 | 23.33° C | 73% | 1018.8 hPa | 0 mm | - | 325 W/m² | - |
| 1777836394 | 23.89° C | 73% | 1019 hPa | 0 mm | - | 231 W/m² | - |
| 1777836090 | 23.89° C | 73% | 1019 hPa | 0 mm | - | 316 W/m² | - |
| 1777835787 | 23.33° C | 73% | 1018.9 hPa | 0 mm | - | 307 W/m² | - |
| 1777835484 | 23.89° C | 72% | 1019 hPa | 0 mm | - | 233 W/m² | - |
| 1777835181 | 23.89° C | 73% | 1019.1 hPa | 0 mm | - | 351 W/m² | - |
* Rain latest hour (hover to see other rain measurements)
** Current wind speed in m/s (hover to see current wind gust speed)